Volver al catálogo

GONETS D1 1

ActivoComunicacionesPO
NORAD 23787·PAYLOAD·🇷🇺 Russia

Lanzado Feb 19, 1996 desde Plesetsk Cosmodrome

Loading…

Próximos Pases (próximas 24 horas)

TLE

ActualizadoSource: Space-Track

Época: Sep 14, 2026, 10:24 UTC

1 23787U 96009A   26257.43382794  .00000007  00000-0 -21576-4 0  9996
2 23787  82.5725 241.7334 0010704 193.5950 333.0909 12.64108865410582

Sigue GONETS D1 1 en tiempo real con AllMySat

Download on the App Store